Location: Unspecified
(0.0000°N, 0.0000°E)
Time: 18:53:09
(UTC+00:00)

Courier 1B Rocket - Pass Details

Date: 21 November 2019
Orbit: 920 x 1202 km, 28.2° (Epoch: 05 December)

Event Time Altitude Azimuth Distance (km) Brightness Sun altitude
Rises 00:51:05 0° 264° (W) 4,034 - -64.5°
Reaches altitude 10° 00:55:03 10° 245° (WSW) 3,031 - -63.9°
Maximum altitude 00:59:48 18° 206° (SSW) 2,437 - -63.1°
Drops below altitude 10° 01:04:23 10° 165° (SSE) 2,903 - -62.4°
Sets 01:08:06 0° 146° (SSE) 3,800 - -61.7°
Exits shadow 01:08:16 - 146° (SE) 3,843 8.5 -61.7°
